SL-8 DEB

Satellite information

Favourite Embed

Satellite Type and Status

DEBRISIN ORBIT

Key statistics

Satellite SL-8 DEB at a glance.

Uptime

12685

Days in orbit

Revolutions

≈ 12.2

Per day

Orbit

LEO

Low Earth Orbit

Inclination

74.1

Latest

Satellite identification and parameters

Extended collection of information and parameters for SL-8 DEB.

Object identification

Identified? True

Debris? True

Object name: SL-8 DEB

International designator: 1991-009EA

Object number (NORAD): 60605

Object ID (CCSDS): 60605

Country: COMMONWEALTH OF INDEPENDENT STATES (CIS)

Current information (Y/N): Y

RCS size: SMALL

Orbital parameters

Period: 118.046 minutes

Inclination: 74.052 deg

SMA: 7971.292 km

Apoapsis: 1732.13 km

Periapsis: 1454.184 km

RAAN: 158.9195 deg

Eccentricy: 0.01743417

Argument of periapsis: 266.456 deg

Mean anomaly: 91.6521 deg

Mean motion: 12.19859089 rev/day

Mean motion (dot): 0.00000183 rev/day2

B* drag term: 0.0018284335 1/REarth

Two-line elements (TLE)

Creation date: Nov. 4, 2025, 4:40 a.m.

Reference frame: TEME

Reference center: EARTH

Epoch: Nov. 3, 2025, 1:25 p.m. UTC

TLE line 0: 0 SL-8 DEB

TLE line 1: 1 60605U 91009EA 25307.55939160 .00000183 00000-0 18284-2 0 9998

TLE line 2: 2 60605 74.0520 158.9195 0174342 266.4560 91.6521 12.19859089531831

Live tracking on map

Real-time ground track for satellite SL-8 DEB.

In-orbit conjunctions

A list of the most updated potential collisions computed for object SL-8 DEB.

Target Orbit TCA Probability of collision Miss distance Type
RADIO 3 LEO 2025-01-17 18:27:42 0.0002123627 285.0 (m) PAYLOAD

Associated space launch

Military communications satellites

SL-8 DEB was lifted into orbit during the mission ‘Kosmos-3M | Strela-1M 353-360’, on board a Kosmos-3M space rocket.

The launch took place on Feb. 12, 1991, 2:44 a.m. from 133/3 (133L).

For more information about the launch, click the button.

Launch to space Kosmos-3M | Strela-1M 353-360
Kosmos-3M | Strela-1M 353-360

Agency: N/A

Status: Launch Successful

Launch date: Feb. 12, 1991, 2:44 a.m. UTC

Rocket: Kosmos-3M

Launch pad: 133/3 (133L)

Location: Plesetsk Cosmodrome, Russian Federation

...

Latest news about this satellite

There are no fresh news available about this satellite. Check back as we update our databases every day.


Newsletter sign-up

Weekly statistics, charts and insights to help you stay on top of the space industry.